Regional Weather Roundup
Issued by NWS

Home | Current Version | Previous Version | Graphics & Text | Print | Product List | Glossary On
Versions: 1 2 3 4 5 6 7 8 9 10 11 12 13 14 15 16 17 18 19 20 21 22 23 24 25 26 27 28 29 30 31 32 33 34 35 36 37 38 39 40 41 42 43 44 45 46 47 48 49 50
000
ASUS43 KLOT 011306
RWRIL

ILLINOIS REGIONAL WEATHER ROUNDUP
NATIONAL WEATHER SERVICE CHICAGO/ROMEOVILLE IL
700 AM CST SUN MAR 01 2015

NOTE: "FAIR" INDICATES FEW OR NO CLOUDS BELOW 12,000 FEET WITH NO
SIGNIFICANT WEATHER AND/OR OBSTRUCTIONS TO VISIBILITY.

* THESE STATIONS ARE NOT UNDER NWS QUALITY CONTROL. THEY ALSO MAY NOT
  REPORT WEATHER SUCH AS PRECIPITATION OR FOG.

ILZ001-002-007-009-015-016-024-011400-
NORTHWEST ILLINOIS

CITY           SKY/WX    TMP DP  RH WIND       PRES   REMARKS
MOLINE         CLOUDY    11   8  88 CALM      30.37F FOG
STERLING*      CLOUDY   N/A N/A N/A CALM      30.37R
SAVANNA*       CLOUDY    15  12  88 CALM      30.38S FOG
$$

ILZ003-004-008-010-011-017-018-011400-
NORTH CENTRAL ILLINOIS

CITY           SKY/WX    TMP DP  RH WIND       PRES   REMARKS
ROCKFORD       CLOUDY    14  11  87 S3        30.38R FOG
FREEPORT*      LGT SNOW  12   9  89 CALM      30.37R
ROCHELLE*      CLOUDY     9   6  90 CALM      30.37R FOG
DE KALB*       FOG       12   9  89 CALM      30.36R VSB<1/4
PERU*          CLOUDY    15  12  90 CALM      30.38R FOG
$$

ILZ005-006-012>014-019>023-011400-
NORTHEAST ILLINOIS

CITY           SKY/WX    TMP DP  RH WIND       PRES   REMARKS
CHICAGO-OHARE  CLOUDY    17  14  88 CALM      30.35F FOG
CHICAGO-MIDWAY CLOUDY    20  16  84 CALM      30.37F
AURORA         HAZE      11   6  81 CALM      30.37F VSB 3/4
LANSING*       CLOUDY    18  16  93 SE3       30.38F
JOLIET*        CLOUDY    15  13  92 CALM      30.39R FOG
WAUKEGAN       CLOUDY    14  13  95 CALM      30.35F FOG
DUPAGE AIRPORT CLOUDY    13  10  88 CALM      30.35F FOG
KANKAKEE*      LGT SNOW  20  18  91 CALM      30.39R
WHEELING       CLOUDY    16  12  84 CALM      30.38F FOG
MORRIS*        CLOUDY    14  13  94 CALM      30.37R FOG
ROMEOVILLE*    MOCLDY    16  14  92 CALM      30.37R FOG
NORTHERLY ISL    N/A     20  16  84 CALM        N/A
$$

LMZ740>746-011400-
SOUTHERN LAKE MICHIGAN

STATION/POSITION SKY/WX   TEMP    WIND        PRES    VSBY  WAVE
                          AIR SEA DIR/SP/G                  HT/PER
                          (F)     (DEG/KT/KT) (MB)    (MI)  (FT/S)
WAUKEGAN HARBOR            16     240/  9/ 14   N/A
HARRISON CRIB              20     310/  2/  4   N/A
BURNHAM HARBOR             20      CALM  /  2   N/A
CALUMET HARBOR                     50/  2/  2 1027.0F
MICHIGAN CITY              17      90/  4/  6   N/A
$$

ILZ025>027-034>036-040-047-049-050-058-095>099-011400-
WEST-CENTRAL ILLINOIS

CITY           SKY/WX    TMP DP  RH WIND       PRES   REMARKS
QUINCY         CLOUDY    21  18  88 N3        30.36S FOG
GALESBURG*     LGT SNOW  19  18  94 CALM      30.36S
MACOMB*        LGT SNOW  20  19  96 CALM      30.39S VSB 3/4
JACKSONVILLE*  LGT SNOW  24  21  90 CALM      30.37S
PITTSFIELD*    LGT SNOW  23  20  91 CALM      30.37S
$$

ILZ028>032-037-038-041>044-048-051>054-059>061-011400-
CENTRAL ILLINOIS

CITY           SKY/WX    TMP DP  RH WIND       PRES   REMARKS
PONTIAC        LGT SNOW  21  19  93 E3        30.38S
BLOOMINGTON    LGT SNOW  21  19  93 CALM      30.37S VSB 3/4
DECATUR        LGT SNOW  22  20  92 CALM      30.36F VSB 3/4
PEORIA         LGT SNOW  22  18  85 CALM      30.38R VSB 3/4
LACON*         LGT SNOW  18  16  90 CALM      30.38S VSB 1
LINCOLN*       LGT SNOW  23  21  92 CALM      30.40S
SPRINGFIELD    LGT SNOW  23  20  88 N3        30.37F FOG
TAYLORVILLE    LGT SNOW  23  21  93 CALM      30.36F
$$

ILZ033-039-045-046-055>057-062-063-011400-
EAST-CENTRAL ILLINOIS

CITY           SKY/WX    TMP DP  RH WIND       PRES   REMARKS
CHAMPAIGN      SNOW      21  19  93 E5        30.36S VSB 1/4 WCI  15
DANVILLE*      LGT SNOW  21  19  94 CALM      30.34F VSB 3/4
RANTOUL*       SNOW      23  21  91 CALM      30.37R VSB 1/2
MATTOON        SNOW      24  22  91 SE3       30.35F VSB 1/2
PARIS*         LGT SNOW  24  23  96 CALM      30.38S VSB 3/4
$$

ILZ079-100>102-011400-
SOUTHWEST ILLINOIS

CITY           SKY/WX    TMP DP  RH WIND       PRES   REMARKS
ALTON          LGT SNOW  25  25 100 VRB5      30.38R WCI  19
BELLEVILLE     FRZ RAIN  27  27 100 CALM      30.37S FOG
CAHOKIA*       CLOUDY    28  27  96 CALM      30.38S FOG
SPARTA*        MIX PCPN  27  26  97 CALM      30.38S
$$

ILZ064>066-069>071-074>076-080>082-084>086-088>090-092>094-011400-
SOUTH-CENTRAL ILLINOIS

CITY           SKY/WX    TMP DP  RH WIND       PRES   REMARKS
CARBONDALE     CLOUDY    31  28  89 N3        30.37S FOG
CAIRO*         LGT SNOW  35  29  80 SE6       30.36S WCI  30
EFFINGHAM*     LGT SNOW  27  24  89 CALM      30.39S VSB 3/4
MARION         CLOUDY    32  30  93 N6        30.38R FOG     WCI  26
MT. VERNON     CLOUDY    28  25  86 N5        30.37F WCI  23
CENTRALIA*     LGT RAIN  28  26  93 CALM      30.37S
SALEM*         LGT SNOW  29  27  92 CALM      30.38S
METROPOLIS*    LGT RAIN  33  29  88 SE3       30.35F
$$

ILZ067-068-072-073-078-083-087-091-011400-
SOUTHEAST ILLINOIS

CITY           SKY/WX    TMP DP  RH WIND       PRES   REMARKS
LAWRENCEVILLE  SNOW      29  27  92 N5        30.38F VSB 1/2 WCI  24
FLORA*         LGT SNOW  27  27  99 CALM      30.38F
FAIRFIELD*     LGT SNOW  30  29  96 CALM      30.38R
HARRISBURG*    CLOUDY    32  30  91 CALM      30.38S
ROBINSON*      LGT SNOW  27  27  99 CALM      30.39F
CARMI*         LGT RAIN  33  32  95 CALM      30.37S
$$

ABBREVIATIONS USED IN REMARKS
   TC - TEMPERATURE IN CELSIUS
  WCI - WIND CHILL INDEX
   HX - HEAT INDEX
  VSB - VISIBILITY
$$




USA.gov is the U.S. government's official web portal to all federal, state and local government web resources and services.